Tracking 21998 objects as of 1-Dec-2020
HD Live streaming from Space Station
objects crossing your sky now

ATLAS CENTAUR R/B

Track ATLAS CENTAUR R/B now!


NORAD ID: 8840
Int'l Code: 1976-042B
Perigee: 582.3 km
Apogee: 36,249.1 km
Inclination: 20.9 °
Period: 647.3 minutes
Semi major axis: 24786 km
RCS: 14.7254 m2 (large)
Launch date: May 13, 1976
Source: United States (US)
Launch site: AIR FORCE EASTERN TEST RANGE (AFETR)

Note: This is a ROCKET BODY
aabbcc
Your satellite tracking list
Your tracking list is empty




NASA's NSSDC Master Catalog

Two Line Element Set (TLE):
1  8840U 76042B   20335.72033700 +.00000001 +00000-0 +25766-3 0  9994
2  8840 020.9176 172.2954 7194758 086.6709 357.7206 02.22471661246298
Source of the keplerian elements: AFSPC